Location: Unspecified
(41.9031°N, 12.4386°E)
Time: 06:12:07
(UTC+02:00)

ISS - Pass Details

Date: 02 August 2020
Orbit: 418 x 420 km, 51.6° (Epoch: 12 August)

Event Time Altitude Azimuth Distance (km) Brightness Sun altitude
Rises 21:10:54 0° 304° (NW) 2,370 2.7 -8.0°
Reaches altitude 10° 21:13:00 10° 304° (NW) 1,503 0.8 -8.3°
Maximum altitude 21:16:23 86° 215° (SW) 425 -3.8 -8.9°
Enters shadow 21:19:16 13° 127° (SE) 1,305 -1.9 -9.3°
